SCP
0 0 0 0 0 0 0 0 0 0 0 0 0 0 0 0 0 0 0 0 0 0 0 0 0 -0 0 0 0 0 0 0
0 0 0 0 0 0 0 0 0 0 0 0 0 0 0 0 0 0 0 0 0 -0 -0 0 0 0 0 0 0 0 0 0
0 0 0 0 0 0 0 0 0 0 0 0 0 0 0 0 0 -0 -0 0 0 -0 -0 0 0 0 0 0 0 0 0 0
0 0 0 0 0 0 0 0 0 0 0 0 0 0 0 0 0 0 -0 -0 -0 -0 -0 0 0 0 0 0 0 0 0 0
0 0 0 0 0 0 0 0 0 0 0 0 0 0 0 0 0 0 -0 -0 0 -0 -0 0 -0 0 0 0 0 0 0 0
0 0 0 0 0 0 0 0 0 0 0 0 0 0 0 0 0 -0 0 0 0 -0 0 0 -0 0 -0 0 0 0 -0 0
0 0 0 0 0 0 0 0 0 0 0 0 0 0 0 0 0 0 -0 -0 0 -0 0 0 0 0 -0 0 0 0 0 0
0 0 0 0 0 0 0 0 0 0 0 0 0 0 0 0 0 0 0 0 0 0 0 0 0 -0 0 -0 0 0 0 0
0 0 0 0 0 0 0 0 0 0 0 0 0 0 0 0 0 0 0 0 0 0 0 0 0 0 0 0 0 0 0 0
0 0 0 0 0 -0 -0 -0 -0 0 0 0 0 0 0 -0 -0 0 0 0 0 0 0 0 0 0 0 0 0 0 0 0
0 0 0 0 0 0 0 0 0 0 0 0 0 0 0 0 0 0 -0 -0 -0 -0 0 0 0 -0 -0 -0 0 0 0 0
0 0 0 0 0 0 0 0 0 0 0 0 0 0 0 0 0 0 0 0 0 0 0 0 0 0 -0 -0 -0 0 0 0
0 0 0 0 0 0 0 0 0 0 0 0 0 0 0 -0 -0 -0 -0 -0 -0 -0 0 0 0 0 0 0 0 -0 -0 -0
0 0 0 0 0 0 0 0 0 0 0 0 0 0 0 0 0 0 0 0 0 0 0 0 -0 -0 0 0 -0 0 -0 0
0 0 0 0 0 0 0 0 0 0 0 0 0 0 0 0 0 0 0 0 0 0 0 -0 -0 -0 -0 -0 -0 -0 0 0
0 0 0 0 0 0 0 0 0 0 0 0 0 0 0 0 0 0 0 0 0 0 0 0 0 0 0 0 0 0 0 0
0 0 0 0 0 0 0 0 0 0 0 0 0 0 0 0 0 0 0 0 0 0 0 0 0 0 0 0 0 0 0 0
0 0 0 0 0 0 0 0 0 0 0 0 0 0 0 0 0 0 0 0 0 0 0 0 0 0 0 0 0 0 0 0
0 0 0 0 0 0 0 0 0 0 0 0 0 0 0 0 0 0 0 0 0 0 0 0 0 0 0 0 0 0 0 0
0 0 0 0 0 0 0 0 0 0 0 0 0 0 0 0 0 0 0 0 0 0 0 0 0 0 0 0 0 0 0 0
Wind_Speed_500mb
33 34 33 31 33 33 36 40 38 36 35 34 32 30 29 27 23 26 26 27 27 29 39 38 52 49 43 42 38 40 45 58
30 29 29 28 32 33 34 32 29 30 30 30 27 25 25 18 17 20 25 24 22 24 25 26 25 36 32 28 24 29 36 38
28 25 25 28 29 30 29 29 29 29 25 23 24 22 21 17 15 14 17 21 18 24 20 18 12 17 23 29 23 26 28 28
25 24 24 23 24 24 27 27 28 26 23 21 20 20 17 15 14 12 15 19 20 20 18 16 9 16 21 23 21 22 25 28
21 20 19 19 18 18 22 26 28 26 24 20 17 16 15 10 7 13 18 19 17 16 15 13 17 21 23 28 23 25 22 36
18 14 12 11 12 15 21 23 25 25 24 21 20 18 17 15 11 9 10 14 11 6 8 9 9 13 19 23 30 23 33 42
12 8 6 7 10 12 16 18 21 24 22 23 23 20 20 20 18 17 16 18 15 9 11 9 10 12 12 17 16 20 24 27
8 3 1 3 6 8 11 16 19 21 24 25 23 23 25 25 24 26 27 26 25 27 28 30 31 29 31 35 35 32 32 31
7 5 4 6 8 11 13 17 20 23 26 28 28 27 27 27 29 33 34 38 37 38 37 38 33 34 37 31 31 27 28 24
12 10 11 12 12 10 7 9 10 12 16 20 22 22 23 24 27 27 26 27 24 24 20 21 24 23 23 21 20 21 19 18
15 15 15 18 17 15 10 4 3 3 6 8 9 9 10 11 13 15 14 13 15 16 15 16 15 13 14 16 15 12 12 10
22 20 21 26 25 19 16 10 9 7 4 4 3 3 4 6 7 8 9 9 9 8 7 6 7 9 8 7 7 7 6 5
30 28 30 33 32 26 22 19 18 16 12 10 9 9 8 7 6 5 5 4 4 5 7 7 7 6 4 3 2 3 4 6
38 37 40 40 39 35 21 28 24 23 19 17 16 14 14 14 12 11 10 10 11 12 11 11 11 11 11 11 12 14 14 17
50 51 51 49 47 38 32 36 33 30 28 27 25 22 21 19 19 19 18 18 18 17 16 18 16 16 19 20 22 23 25 27
57 61 58 54 55 47 41 44 43 38 37 36 34 31 30 29 27 27 24 27 28 26 28 29 28 25 30 32 32 34 36 42
53 61 63 59 62 58 52 52 52 50 46 43 41 38 38 37 35 35 33 34 36 35 36 35 38 37 39 42 43 45 48 54
49 50 57 62 65 60 59 61 61 59 53 49 48 47 46 45 45 44 39 43 42 42 43 45 48 47 48 49 52 53 55 61
43 42 47 57 63 57 59 67 69 67 62 59 56 55 54 53 52 52 54 54 50 48 51 52 54 55 55 55 59 66 65 70
46 43 45 55 56 52 55 64 70 71 70 67 63 61 60 60 59 60 61 63 63 59 56 54 57 62 62 60 63 68 73 75
Wind_Direction_500mb
310 307 311 316 318 318 318 318 320 322 319 315 311 306 302 298 292 283 277 274 280 275 269 261 259 264 247 240 237 245 244 247
311 313 316 322 321 321 323 323 328 325 322 316 311 307 301 300 289 280 281 280 279 273 266 283 256 237 244 227 211 225 234 244
316 317 324 327 325 328 328 334 334 331 329 324 318 312 311 308 293 280 280 285 282 275 277 259 241 230 235 216 207 233 240 240
318 322 327 334 338 343 343 351 349 347 347 342 332 322 332 332 319 304 272 258 266 297 289 284 242 224 226 218 218 232 240 264
322 327 339 347 354 360 2 360 1 2 1 360 354 346 342 354 340 302 294 300 306 293 283 255 220 221 209 214 217 213 222 236
326 333 352 4 16 17 16 9 8 15 13 16 13 11 11 14 10 350 337 335 333 316 265 244 226 206 198 212 219 191 186 183
321 334 18 33 34 21 18 16 21 28 31 41 39 33 42 44 45 43 41 46 47 73 92 100 128 108 127 149 159 159 151 144
293 276 71 60 43 43 39 42 44 46 49 50 53 56 58 59 68 70 68 70 76 80 80 84 87 86 95 100 100 99 110 117
265 237 183 138 120 101 86 77 71 66 63 58 57 55 58 65 75 80 81 79 76 74 74 81 83 84 85 85 78 90 90 94
242 215 188 174 163 150 129 83 72 75 76 73 67 61 60 59 56 59 65 72 79 87 89 90 91 89 92 99 102 103 110 107
246 224 208 201 193 183 180 143 112 78 73 72 69 70 67 62 68 71 67 60 60 62 68 71 79 91 86 81 77 79 80 85
250 230 208 207 203 208 223 222 223 223 256 298 322 354 26 27 24 22 26 30 28 36 43 49 48 56 66 69 76 87 95 107
252 239 226 221 223 228 233 235 241 245 252 263 276 288 294 301 306 312 318 331 339 351 357 354 353 352 344 325 288 263 259 258
254 244 236 233 235 239 232 240 245 245 245 250 260 272 284 289 290 291 296 301 309 316 323 321 317 311 303 294 287 282 277 273
258 250 243 241 243 245 234 242 246 247 248 253 256 259 263 269 277 283 288 289 288 288 288 283 282 287 284 280 281 283 281 276
266 260 257 249 249 247 242 244 251 251 250 251 256 257 261 266 267 270 273 277 280 285 286 288 288 289 287 288 287 286 284 280
276 265 261 256 253 250 247 247 252 255 253 254 257 259 260 262 264 269 271 272 278 281 283 283 286 288 287 287 287 287 287 282
285 275 265 260 257 255 252 252 254 257 259 259 259 259 260 262 266 268 265 273 273 276 280 284 287 287 288 288 287 284 283 280
279 273 267 264 259 255 252 254 256 259 262 261 261 261 263 265 267 271 275 274 270 271 277 281 284 286 287 287 287 284 282 282
277 277 286 271 265 261 254 252 254 256 260 263 265 265 266 268 270 271 274 277 279 280 279 282 284 284 283 283 280 282 282 283
Wind_Speed_850mb
33 34 33 31 33 33 36 40 38 36 35 34 32 30 29 27 23 26 26 27 27 29 39 38 52 49 43 42 38 40 45 58
30 29 29 28 32 33 34 32 29 30 30 30 27 25 25 18 17 20 25 24 22 24 25 26 25 36 32 28 24 29 36 38
28 25 25 28 29 30 29 29 29 29 25 23 24 22 21 17 15 14 17 21 18 24 20 18 12 17 23 29 23 26 28 28
25 24 24 23 24 24 27 27 28 26 23 21 20 20 17 15 14 12 15 19 20 20 18 16 9 16 21 23 21 22 25 28
21 20 19 19 18 18 22 26 28 26 24 20 17 16 15 10 7 13 18 19 17 16 15 13 17 21 23 28 23 25 22 36
18 14 12 11 12 15 21 23 25 25 24 21 20 18 17 15 11 9 10 14 11 6 8 9 9 13 19 23 30 23 33 42
12 8 6 7 10 12 16 18 21 24 22 23 23 20 20 20 18 17 16 18 15 9 11 9 10 12 12 17 16 20 24 27
8 3 1 3 6 8 11 16 19 21 24 25 23 23 25 25 24 26 27 26 25 27 28 30 31 29 31 35 35 32 32 31
7 5 4 6 8 11 13 17 20 23 26 28 28 27 27 27 29 33 34 38 37 38 37 38 33 34 37 31 31 27 28 24
12 10 11 12 12 10 7 9 10 12 16 20 22 22 23 24 27 27 26 27 24 24 20 21 24 23 23 21 20 21 19 18
15 15 15 18 17 15 10 4 3 3 6 8 9 9 10 11 13 15 14 13 15 16 15 16 15 13 14 16 15 12 12 10
22 20 21 26 25 19 16 10 9 7 4 4 3 3 4 6 7 8 9 9 9 8 7 6 7 9 8 7 7 7 6 5
30 28 30 33 32 26 22 19 18 16 12 10 9 9 8 7 6 5 5 4 4 5 7 7 7 6 4 3 2 3 4 6
38 37 40 40 39 35 21 28 24 23 19 17 16 14 14 14 12 11 10 10 11 12 11 11 11 11 11 11 12 14 14 17
50 51 51 49 47 38 32 36 33 30 28 27 25 22 21 19 19 19 18 18 18 17 16 18 16 16 19 20 22 23 25 27
57 61 58 54 55 47 41 44 43 38 37 36 34 31 30 29 27 27 24 27 28 26 28 29 28 25 30 32 32 34 36 42
53 61 63 59 62 58 52 52 52 50 46 43 41 38 38 37 35 35 33 34 36 35 36 35 38 37 39 42 43 45 48 54
49 50 57 62 65 60 59 61 61 59 53 49 48 47 46 45 45 44 39 43 42 42 43 45 48 47 48 49 52 53 55 61
43 42 47 57 63 57 59 67 69 67 62 59 56 55 54 53 52 52 54 54 50 48 51 52 54 55 55 55 59 66 65 70
46 43 45 55 56 52 55 64 70 71 70 67 63 61 60 60 59 60 61 63 63 59 56 54 57 62 62 60 63 68 73 75
Wind_Direction_850mb
310 307 311 316 318 318 318 318 320 322 319 315 311 306 302 298 292 283 277 274 280 275 269 261 259 264 247 240 237 245 244 247
311 313 316 322 321 321 323 323 328 325 322 316 311 307 301 300 289 280 281 280 279 273 266 283 256 237 244 227 211 225 234 244
316 317 324 327 325 328 328 334 334 331 329 324 318 312 311 308 293 280 280 285 282 275 277 259 241 230 235 216 207 233 240 240
318 322 327 334 338 343 343 351 349 347 347 342 332 322 332 332 319 304 272 258 266 297 289 284 242 224 226 218 218 232 240 264
322 327 339 347 354 360 2 360 1 2 1 360 354 346 342 354 340 302 294 300 306 293 283 255 220 221 209 214 217 213 222 236
326 333 352 4 16 17 16 9 8 15 13 16 13 11 11 14 10 350 337 335 333 316 265 244 226 206 198 212 219 191 186 183
321 334 18 33 34 21 18 16 21 28 31 41 39 33 42 44 45 43 41 46 47 73 92 100 128 108 127 149 159 159 151 144
293 276 71 60 43 43 39 42 44 46 49 50 53 56 58 59 68 70 68 70 76 80 80 84 87 86 95 100 100 99 110 117
265 237 183 138 120 101 86 77 71 66 63 58 57 55 58 65 75 80 81 79 76 74 74 81 83 84 85 85 78 90 90 94
242 215 188 174 163 150 129 83 72 75 76 73 67 61 60 59 56 59 65 72 79 87 89 90 91 89 92 99 102 103 110 107
246 224 208 201 193 183 180 143 112 78 73 72 69 70 67 62 68 71 67 60 60 62 68 71 79 91 86 81 77 79 80 85
250 230 208 207 203 208 223 222 223 223 256 298 322 354 26 27 24 22 26 30 28 36 43 49 48 56 66 69 76 87 95 107
252 239 226 221 223 228 233 235 241 245 252 263 276 288 294 301 306 312 318 331 339 351 357 354 353 352 344 325 288 263 259 258
254 244 236 233 235 239 232 240 245 245 245 250 260 272 284 289 290 291 296 301 309 316 323 321 317 311 303 294 287 282 277 273
258 250 243 241 243 245 234 242 246 247 248 253 256 259 263 269 277 283 288 289 288 288 288 283 282 287 284 280 281 283 281 276
266 260 257 249 249 247 242 244 251 251 250 251 256 257 261 266 267 270 273 277 280 285 286 288 288 289 287 288 287 286 284 280
276 265 261 256 253 250 247 247 252 255 253 254 257 259 260 262 264 269 271 272 278 281 283 283 286 288 287 287 287 287 287 282
285 275 265 260 257 255 252 252 254 257 259 259 259 259 260 262 266 268 265 273 273 276 280 284 287 287 288 288 287 284 283 280
279 273 267 264 259 255 252 254 256 259 262 261 261 261 263 265 267 271 275 274 270 271 277 281 284 286 287 287 287 284 282 282
277 277 286 271 265 261 254 252 254 256 260 263 265 265 266 268 270 271 274 277 279 280 279 282 284 284 283 283 280 282 282 283